{"data":{"norad_id":49186,"intl_designator":"2021-083A","name":"ONEWEB-0292","alt_names":[],"object_type":"PAYLOAD","status":"ACTIVE","operator":null,"country":"UK","launch_date":"2021-09-14","launch_site_code":"TYMSC","launch_vehicle":null,"mission":null,"orbit_class":"UNKNOWN","rcs_meters":null,"size_class":null,"mass_kg":null,"dimensions":null,"purposes":["comms"],"wikipedia_slug":null,"has_3d_model":false,"image_url":null,"decayed_at":null,"tle_current":{"epoch":"2026-09-19T22:19:55.011648Z","epoch_age_seconds":71219,"freshness":"FRESH","line1":"1 49186U 21083A   26262.93049782  .00000208  00000+0  53385-3 0  9998","line2":"2 49186  87.8909 301.3843 0002002  97.8579 262.2777 13.13469909243368","mean_motion":13.13469909,"eccentricity":0.0002002,"inclination_deg":87.8909,"raan_deg":301.3843,"arg_perigee_deg":97.8579,"mean_anomaly_deg":262.2777,"bstar":0.00053385,"rev_number":24336,"period_min":109.63326910902,"perigee_km":1208.2466522404,"apogee_km":1211.2848485016,"semimajor_km":7587.902750371,"source":"CELESTRAK","updated_at":"2026-09-20T09:00:44.660076Z"}}}